Regional Weather Roundup
Issued by NWS

Home | Current Version | Previous Version | Graphics & Text | Print | Product List | Glossary On
Versions: 1 2 3 4 5 6 7 8 9 10 11 12 13 14 15 16 17 18 19 20 21 22 23 24 25 26 27 28 29 30 31 32 33 34 35 36 37 38 39 40 41 42 43 44 45 46 47 48 49 50
000
ASUS43 KOAX 221610
RWRNE

WEATHER ROUNDUP FOR NEBRASKA
NATIONAL WEATHER SERVICE OMAHA NE
1000 AM CST MON DEC 22 2014

NOTES: SATELLITE DATA IS BEING USED TO AUGMENT CLOUD COVER ABOVE
       12000 FEET.
       "FAIR" INDICATES FEW OR NO CLOUDS BELOW 12,000 FEET WITH NO
       SIGNIFICANT WEATHER AND/OR OBSTRUCTIONS TO VISIBILITY.

  * THESE STATIONS DO NOT REPORT WEATHER SUCH AS RAIN...SNOW OR FOG.

NEZ001>004-019>022-054>056-221700-
NEBRASKA PANHANDLE

CITY           SKY/WX    TMP DP  RH WIND       PRES   REMARKS
SCOTTSBLUFF    MOSUNNY   33  25  72 W10       29.69S WCI  25
ALLIANCE       MOSUNNY   31  23  72 W20       29.63S WCI  19
CHADRON        MOSUNNY   34  26  72 W10       29.65S WCI  26
KIMBALL        SUNNY     29  24  81 W10       29.68S WCI  20
SIDNEY         MOSUNNY   34  26  72 NW16      29.67S WCI  24
$$

NEZ057>060-069>072-079>082-221700-
SOUTHWEST NEBRASKA

CITY           SKY/WX    TMP DP  RH WIND       PRES   REMARKS
NORTH PLATTE   PTSUNNY   37  30  75 W16       29.59S WCI  28
IMPERIAL       PTSUNNY   39  27  62 NW17      29.64F WCI  30
LEXINGTON      PTSUNNY   39  35  84 NW13      29.57S WCI  32
MCCOOK         CLOUDY    40  32  73 W8        29.62F WCI  34
OGALLALA       MOSUNNY   38  29  70 NW17G24   29.63F WCI  28
$$

NEZ005>010-023>029-035>040-094-221700-
NORTH CENTRAL NEBRASKA

CITY           SKY/WX    TMP DP  RH WIND       PRES   REMARKS
VALENTINE      CLOUDY    38  31  76 NW10      29.51F WCI  31
AINSWORTH      CLOUDY    39  31  73 NW16G22   29.50S WCI  30
BROKEN BOW     MOSUNNY   41  34  76 NW14      29.53S
O`NEILL        CLOUDY    39  37  91 W13       29.48S WCI  32
THEDFORD       MOSUNNY   39  32  76 NW14G23   29.54R WCI  31
$$

NEZ041-046>049-061>064-073>077-083>087-221700-
SOUTH CENTRAL NEBRASKA

CITY           SKY/WX    TMP DP  RH WIND       PRES   REMARKS
GRAND ISLAND   LGT RAIN  41  36  82 NW15      29.53S
AURORA         CLOUDY    42  38  86 NW16G22   29.51F
HASTINGS       LGT RAIN  42  35  76 NW17      29.53S
HEBRON         CLOUDY    42  38  84 NW13G18   29.53R
HOLDREGE       CLOUDY    39  35  85 W9        29.57S WCI  32
KEARNEY *      CLOUDY    39  34  81 W9        29.56S WCI  33
YORK           CLOUDY    41  39  93 NW15G22   29.51R
$$

NEZ011>018-030>034-042>045-221700-
NORTHEAST NEBRASKA

CITY           SKY/WX    TMP DP  RH WIND       PRES   REMARKS
NORFOLK        CLOUDY    41  39  93 NW13      29.46F
ALBION         CLOUDY    41  37  84 NW16      29.49S
BLAIR          LGT RAIN  42  40  92 SE12      29.49S
COLUMBUS *     CLOUDY    41  36  81 NW10      29.49S
FREMONT        DRIZZLE   43  42  97 SE8       29.49S
TEKAMAH        LGT RAIN  43  41  93 SE14      29.49F
WAYNE          CLOUDY    41  38  91 W8        29.48R
$$

NEZ050>053-065>068-078-088>093-221700-
SOUTHEAST NEBRASKA

CITY           SKY/WX    TMP DP  RH WIND       PRES   REMARKS
LINCOLN        CLOUDY    43  42  97 W7        29.50S
OMAHA EPPLEY   LGT RAIN  42  40  92 SE15      29.52F FOG
BEATRICE       CLOUDY    43  42  99 W7        29.49S FOG
FALLS CITY     LGT RAIN  43  32  65 SE10      29.53F
NEBRASKA CITY  LGT RAIN  41  41 100 SE10      29.52S
PLATTSMOUTH    LGT RAIN  41  39  94 SE10      29.51F
$$

NEZ044-045-051>053-067-221700-
OMAHA AREA

CITY           SKY/WX    TMP DP  RH WIND       PRES   REMARKS
OMAHA EPPLEY   LGT RAIN  42  40  92 SE15      29.52F FOG
BLAIR          LGT RAIN  42  40  92 SE12      29.49S
FREMONT        DRIZZLE   43  42  97 SE8       29.49S
MILLARD        LGT RAIN  42  40  94 SE8       29.50F
PLATTSMOUTH    LGT RAIN  41  39  94 SE10      29.51F
WAHOO          DRIZZLE   42  40  93 S8        29.49S
$$



USA.gov is the U.S. government's official web portal to all federal, state and local government web resources and services.